Waarnemingen

Advertentie
Mijn weer
Laupheim, Duitsland (10837): temperatuur & dauwpunt: 23.03.2017 01:00:00 - 29.03.2017 01:00:00 (CEST)Laupheim, Duitsland (10837): windsnelheid & windstoten: 23.03.2017 01:00:00 - 29.03.2017 01:00:00 (CEST)Laupheim, Duitsland (10837): windrichting: 23.03.2017 01:00:00 - 29.03.2017 01:00:00 (CEST)Laupheim, Duitsland (10837): luchtdruk: 23.03.2017 01:00:00 - 29.03.2017 01:00:00 (CEST)Laupheim, Duitsland (10837): zicht: 23.03.2017 01:00:00 - 29.03.2017 01:00:00 (CEST)
Datum & Tijd tt [°C] td [°C] ff [km/u] ff [kn] fx [km/u] fx [kn] dd ppp [hPa] vv [km]
29.03.2017 01:00:00 10,0 3,3 7 4 - - ZW 1026,3 20
29.03.2017 00:00:00 10,5 3,3 11 6 - - ZZW 1025,6 20
28.03.2017 23:00:00 9,9 3,5 4 2 - - WZW 1025,4 20
28.03.2017 22:00:00 12,6 3,5 4 2 - - WZW 1024,4 20
28.03.2017 21:00:00 14,1 3,9 7 4 - - ZW 1023,6 20
28.03.2017 20:00:00 15,4 4,3 7 4 - - ZZW 1022,7 20
28.03.2017 19:00:00 16,8 4,4 11 6 - - ZW 1022,0 30
28.03.2017 18:00:00 18,0 3,5 11 6 - - ZZW 1021,4 30
28.03.2017 17:00:00 17,9 3,4 7 4 - - WZW 1021,4 30
28.03.2017 16:00:00 18,2 3,5 7 4 - - WZW 1021,5 27
28.03.2017 15:00:00 18,1 3,6 11 6 - - ZZW 1021,9 27
28.03.2017 14:00:00 16,9 3,3 11 6 - - WZW 1022,6 27
28.03.2017 13:00:00 15,9 4,5 7 4 - - Z 1023,3 27
28.03.2017 12:00:00 14,0 4,6 7 4 - - ZW 1024,1 27
28.03.2017 11:00:00 11,3 4,5 11 6 - - WZW 1024,6 27
28.03.2017 10:00:00 7,2 2,7 11 6 - - W 1025,5 27
28.03.2017 09:00:00 3,3 -0,4 7 4 - - WZW 1026,2 30
28.03.2017 08:00:00 1,0 -1,8 7 4 - - ZZW 1026,3 30
28.03.2017 07:00:00 -0,2 -2,3 4 2 - - ZZW 1026,2 27
28.03.2017 06:00:00 0,6 -2,0 4 2 - - ZW 1026,0 20
28.03.2017 05:00:00 0,7 -1,8 4 2 - - ZZW 1025,6 20
28.03.2017 04:00:00 0,9 -1,8 4 2 - - ZZW 1025,6 20
28.03.2017 03:00:00 1,9 -1,2 4 2 - - ZW 1025,4 20
28.03.2017 02:00:00 2,8 -1,1 4 2 - - Z 1025,1 20
28.03.2017 01:00:00 3,7 -0,7 4 2 - - N 1024,7 20
28.03.2017 00:00:00 4,9 -1,0 0 0 - - N 1024,6 25
27.03.2017 23:00:00 5,8 -1,4 4 2 - - NNW 1024,2 25
27.03.2017 22:00:00 7,2 -1,8 7 4 - - OZO 1023,7 25
27.03.2017 21:00:00 9,3 -1,4 4 2 - - ONO 1022,9 25
27.03.2017 20:00:00 12,3 -1,0 7 4 - - O 1021,8 30
27.03.2017 19:00:00 14,5 -1,4 7 4 - - O 1021,2 30
27.03.2017 18:00:00 15,1 -0,6 11 6 - - O 1020,7 30
27.03.2017 17:00:00 15,3 -1,9 11 6 - - OZO 1020,9 30
27.03.2017 16:00:00 14,7 -2,1 14 8 - - O 1021,3 30
27.03.2017 15:00:00 14,0 -0,3 14 8 - - O 1021,8 35
27.03.2017 14:00:00 13,0 -0,6 18 10 - - ONO 1022,7 35
27.03.2017 13:00:00 11,4 -0,5 14 8 - - O 1023,1 35
27.03.2017 12:00:00 9,1 -1,2 14 8 - - ONO 1023,8 35
27.03.2017 11:00:00 6,6 -2,5 7 4 - - O 1024,4 35
27.03.2017 10:00:00 4,8 -3,2 11 6 - - ONO 1024,8 35
27.03.2017 09:00:00 1,5 -3,2 11 6 - - NO 1025,3 35
27.03.2017 08:00:00 -0,7 -3,7 11 6 - - N 1025,8 30
27.03.2017 07:00:00 -0,3 -4,8 7 4 - - N 1025,5 25
27.03.2017 06:00:00 1,4 -4,8 11 6 - - NO 1025,0 20
27.03.2017 05:00:00 2,3 -5,0 14 8 - - NO 1024,7 20
27.03.2017 04:00:00 1,3 -5,1 14 8 - - NO 1025,1 20
27.03.2017 03:00:00 2,9 -4,5 14 8 - - NO 1025,2 20
27.03.2017 02:00:00 2,4 -4,6 7 4 - - ONO 1025,7 25
27.03.2017 01:00:00 4,5 -4,6 7 4 - - O 1025,4 25
27.03.2017 00:00:00 3,9 -3,4 7 4 - - NO 1025,5 25
26.03.2017 23:00:00 6,4 -3,1 14 8 - - OZO 1024,7 25
26.03.2017 22:00:00 7,1 -3,0 14 8 - - O 1024,2 25
26.03.2017 21:00:00 7,9 -1,7 11 6 - - O 1023,6 25
26.03.2017 20:00:00 8,8 -0,4 14 8 - - ONO 1022,7 30
26.03.2017 19:00:00 10,9 -0,6 18 10 - - O 1021,8 35
26.03.2017 18:00:00 11,8 -0,2 18 10 - - O 1021,1 35
26.03.2017 17:00:00 12,3 -0,8 18 10 - - O 1020,9 35
26.03.2017 16:00:00 12,3 -0,8 18 10 - - ONO 1020,8 35
26.03.2017 15:00:00 12,0 -0,9 18 10 - - ONO 1021,0 30
26.03.2017 14:00:00 11,4 -0,6 18 10 - - O 1021,3 30
26.03.2017 13:00:00 10,7 -1,3 22 12 - - O 1021,6 30
26.03.2017 12:00:00 9,2 -0,3 22 12 - - O 1022,1 30
26.03.2017 11:00:00 7,2 -0,5 18 10 - - O 1022,2 20
26.03.2017 10:00:00 5,7 -0,2 11 6 - - ONO 1022,6 20
26.03.2017 09:00:00 3,4 -0,3 11 6 - - NO 1022,9 20
26.03.2017 08:00:00 2,0 -0,7 7 4 - - NNO 1022,4 20
26.03.2017 07:00:00 2,3 -0,8 18 10 - - NO 1021,6 18
26.03.2017 06:00:00 2,8 -0,6 14 8 - - NO 1020,8 20
26.03.2017 05:00:00 3,4 -0,2 18 10 - - NO 1020,3 20
26.03.2017 04:00:00 3,1 0,1 18 10 - - NO 1020,6 20
26.03.2017 03:00:00 4,0 0,4 18 10 - - NO 1020,9 20
26.03.2017 02:00:00 4,7 0,5 18 10 - - NO 1021,1 20
26.03.2017 01:00:00 5,5 0,4 18 10 - - ONO 1020,6 20
26.03.2017 00:00:00 6,6 0,9 22 12 - - NO 1020,7 20
25.03.2017 23:00:00 6,1 1,7 14 8 - - NO 1020,9 20
25.03.2017 22:00:00 6,5 1,2 14 8 - - ONO 1021,0 20
25.03.2017 21:00:00 7,3 0,4 14 8 - - NO 1020,7 20
25.03.2017 20:00:00 9,7 0,7 14 8 - - ONO 1020,2 25
25.03.2017 19:00:00 11,6 0,9 29 16 - - ONO 1019,6 25
25.03.2017 18:00:00 12,8 1,2 29 16 47 25 ONO 1019,5 25
25.03.2017 17:00:00 13,3 1,1 29 16 - - ONO 1019,8 25
25.03.2017 16:00:00 13,8 0,9 29 16 47 25 ONO 1020,5 25
25.03.2017 15:00:00 12,5 0,4 36 19 47 25 O 1021,7 20
25.03.2017 14:00:00 11,8 1,2 32 18 - - O 1022,7 18
25.03.2017 13:00:00 10,1 1,9 32 18 - - O 1023,9 15
25.03.2017 12:00:00 8,4 2,7 25 14 - - ONO 1024,8 12
25.03.2017 11:00:00 7,0 2,8 29 16 - - ONO 1025,7 8
25.03.2017 10:00:00 5,7 2,1 25 14 - - ONO 1026,0 8
25.03.2017 09:00:00 5,5 2,2 22 12 - - ONO 1026,2 8
25.03.2017 08:00:00 5,2 2,3 25 14 - - ONO 1026,4 7
25.03.2017 07:00:00 5,2 2,4 25 14 - - ONO 1026,2 7
25.03.2017 06:00:00 5,4 2,5 25 14 - - ONO 1026,5 6
25.03.2017 05:00:00 5,9 2,9 22 12 - - ONO 1026,6 6
25.03.2017 04:00:00 6,3 3,3 25 14 - - ONO 1027,0 6
25.03.2017 03:00:00 6,7 4,0 18 10 - - ONO 1027,2 6
25.03.2017 02:00:00 6,9 4,3 25 14 - - ONO 1027,2 7
25.03.2017 01:00:00 6,9 4,8 22 12 - - ONO 1027,5 7
25.03.2017 00:00:00 7,1 4,9 22 12 - - ONO 1027,6 7
24.03.2017 23:00:00 7,5 4,9 22 12 - - ONO 1027,4 8
24.03.2017 22:00:00 7,8 4,6 22 12 - - ONO 1027,1 8
24.03.2017 21:00:00 7,6 5,0 18 10 - - ONO 1026,8 8
24.03.2017 20:00:00 7,7 5,0 22 12 - - ONO 1026,4 9
24.03.2017 19:00:00 7,7 5,1 22 12 - - ONO 1026,0 9
24.03.2017 18:00:00 7,6 5,1 18 10 - - ONO 1025,9 9
24.03.2017 17:00:00 7,5 5,0 18 10 - - ONO 1025,8 8
24.03.2017 16:00:00 7,3 4,9 22 12 - - ONO 1025,4 6
24.03.2017 15:00:00 6,8 4,8 25 14 - - ONO 1025,5 5
24.03.2017 14:00:00 6,3 4,8 22 12 - - ONO 1025,5 4,5
24.03.2017 13:00:00 6,4 4,7 22 12 - - NO 1025,1 4,5
24.03.2017 12:00:00 6,2 4,8 18 10 - - ONO 1024,9 4,8
24.03.2017 11:00:00 5,9 4,7 18 10 - - ONO 1024,6 3,5
24.03.2017 10:00:00 5,8 4,6 18 10 - - ONO 1024,1 4,0
24.03.2017 09:00:00 5,4 4,3 18 10 - - O 1023,7 4,0
24.03.2017 08:00:00 5,7 4,4 22 12 - - ONO 1022,6 4,5
24.03.2017 07:00:00 6,3 4,7 11 6 - - ONO 1022,7 5
24.03.2017 06:00:00 6,7 5,0 14 8 - - ONO 1021,9 5
24.03.2017 05:00:00 7,0 5,1 14 8 - - ONO 1021,2 8
24.03.2017 04:00:00 7,0 5,2 14 8 - - ONO 1020,7 8
24.03.2017 03:00:00 7,2 5,2 14 8 - - O 1020,1 6
24.03.2017 02:00:00 7,2 5,5 18 10 - - ONO 1019,4 6
24.03.2017 01:00:00 7,2 5,5 18 10 - - ONO 1018,6 6
24.03.2017 00:00:00 7,4 5,5 21 11 - - ONO 1018,1 6
23.03.2017 23:00:00 7,4 5,2 22 12 - - ONO 1017,7 7
23.03.2017 22:00:00 7,8 5,4 25 14 - - ONO 1017,4 7
23.03.2017 21:00:00 8,4 5,8 18 10 - - NO 1016,5 7
23.03.2017 20:00:00 9,2 6,2 25 14 - - NO 1015,1 8
23.03.2017 19:00:00 10,5 6,5 29 16 - - NO 1013,9 15
23.03.2017 18:00:00 12,4 7,6 25 14 - - NO 1013,0 15
23.03.2017 17:00:00 13,9 7,3 29 16 - - ONO 1012,5 15
23.03.2017 16:00:00 13,9 6,6 25 14 - - NO 1012,8 15
23.03.2017 15:00:00 13,3 6,6 25 14 - - NO 1013,0 15
23.03.2017 14:00:00 13,2 7,0 18 10 - - NO 1013,4 15
23.03.2017 13:00:00 11,6 6,1 11 6 - - O 1014,0 15
23.03.2017 12:00:00 9,7 6,0 11 6 - - NO 1014,6 13
23.03.2017 11:00:00 8,5 5,9 11 6 - - ONO 1014,9 9
23.03.2017 10:00:00 7,1 5,5 7 4 - - OZO 1015,1 7
23.03.2017 09:00:00 6,0 5,3 7 4 - - N 1015,3 5
23.03.2017 08:00:00 5,8 5,3 15 8 - - ZO 1014,8 4,0
23.03.2017 07:00:00 5,7 5,4 7 4 - - Z 1014,9 1,8
23.03.2017 06:00:00 5,6 5,4 5 3 - - WZW 1015,1 1,5
23.03.2017 05:00:00 5,7 5,5 7 4 - - W 1014,9 1,2
23.03.2017 04:00:00 5,6 5,4 4 2 - - NNO 1014,7 0,8
23.03.2017 03:00:00 5,6 5,5 7 4 - - WNW 1015,2 0,4
23.03.2017 02:00:00 5,5 5,3 4 2 - - NNO 1014,3 0,3
23.03.2017 01:00:00 - - - - - - - - -

tt = temperatuur
td = dauwpunt
ff = windsnelheid
fx = windstoten
dd = windrichting
ppp = luchtdruk
vv = zicht

Weerstations in de omgeving